This demonstration page uses our WeatherBlox Daily Observations layout. Learn more.

Left ArrowRight Arrow

Hourly Observations for April 25, 2017

Temp ( °F °C ) Dew Point ( °F °C ) Humidity (%) Winds ( mph kmh ) Pressure ( in mb ) Visibility ( mi km ) Precip ( " mm )
12:06 am 00:06 Mostly Cloudy 60 15.6 58 14.4 93 93 ENE 14 22 29.83 1010 7 11 0.00 0.00
12:59 am 00:59 Cloudy 61 16.1 57 13.9 87 87 ESE 10 17 29.82 1010 8 13 0.00 0.00
1:59 am 01:59 Cloudy 60 15.6 58 14.4 93 93 E 12 19 29.78 1009 8 13 0.02 0.51
2:52 am 02:52 Cloudy 60 15.6 57 13.9 90 90 E 9 15 29.77 1008 8 13 0.00 0.03
2:59 am 02:59 Cloudy 60 15.6 57 13.9 90 90 ENE 10 17 29.75 1007 7 11 0.00 0.03
3:50 am 03:50 Cloudy with Light Rain 61 16.1 58 14.4 90 90 E 15 24 29.74 1007 5 8 0.01 0.25
3:59 am 03:59 Cloudy with Light Rain 61 16.1 58 14.4 90 90 E 13 20 29.73 1007 3 4 0.02 0.51
4:11 am 04:11 Cloudy with Light Rain 60 15.6 58 14.4 93 93 E 16 26 29.71 1006 4 6 0.02 0.51
4:59 am 04:59 Cloudy with Light Rain 60 15.6 58 14.4 93 93 E 20 31 29.70 1006 3 4 0.03 0.76
5:08 am 05:08 Cloudy with Light Rain 60 15.6 59 15 96 96 E 16 26 29.71 1006 3 5 0.01 0.25
5:59 am 05:59 Cloudy with Light Rain 60 15.6 58 14.4 93 93 ENE 18 30 29.67 1005 3 5 0.03 0.76
6:42 am 06:42 Cloudy with Light Rain 61 16.1 59 15 93 93 ENE 20 31 29.65 1004 3 5 0.01 0.25
6:59 am 06:59 Cloudy with Light Rain 61 16.1 59 15 93 93 ENE 21 33 29.64 1004 3 5 0.01 0.25
7:27 am 07:27 Cloudy with Light Rain 61 16.1 60 15.6 97 97 ENE 23 37 29.62 1003 2 2 0.05 1.27
7:34 am 07:34 Cloudy with Light Rain 61 16.1 59 15 93 93 ENE 25 41 29.62 1003 3 4 0.05 1.27
7:41 am 07:41 Cloudy with Mist and Fog 61 16.1 60 15.6 97 97 ENE 24 39 29.62 1003 4 6 0.05 1.27
7:59 am 07:59 Cloudy with Light Rain 61 16.1 60 15.6 97 97 E 20 31 29.62 1003 4 6 0.05 1.27
8:59 am 08:59 Cloudy with Mist and Fog 62 16.7 60 15.6 93 93 E 18 30 29.62 1003 3 5 0.00 0.03
9:42 am 09:42 Cloudy with Mist and Fog 64 17.8 62 16.7 93 93 ESE 12 19 29.62 1003 5 8 0.00 0.00
9:59 am 09:59 Mostly Cloudy with Mist and Fog 66 18.9 63 17.2 90 90 SSE 8 13 29.62 1003 6 10 0.00 0.00
10:23 am 10:23 Mostly Cloudy with Mist and Fog 68 20 63 17.2 84 84 SSE 12 19 29.62 1003 6 10 0.00 0.00
10:59 am 10:59 Mostly Cloudy 71 21.7 63 17.2 76 76 SE 8 13 29.64 1004 10 16 0.00 0.00
11:59 am 11:59 Mostly Cloudy 73 22.8 58 14.4 59 59 SSE 12 19 29.66 1004 10 16 0.00 0.00
12:59 pm 12:59 Mostly Cloudy 75 23.9 60 15.6 60 60 ESE 13 20 29.66 1004 10 16 0.00 0.00
1:59 pm 13:59 Mostly Cloudy 77 25 61 16.1 58 58 ESE 8 13 29.64 1004 10 16 0.00 0.00
2:59 pm 14:59 Mostly Cloudy 75 23.9 60 15.6 60 60 SE 12 19 29.64 1004 10 16 0.00 0.00
3:59 pm 15:59 Cloudy with Light Rain 67 19.4 61 16.1 81 81 E 12 19 29.61 1003 6 10 0.00 0.03
4:59 pm 16:59 Cloudy 70 21.1 61 16.1 73 73 NNE 12 19 29.62 1003 10 16 0.01 0.25
5:39 pm 17:39 Cloudy 66 18.9 61 16.1 84 84 NNE 5 7 29.65 1004 9 14 0.00 0.00
5:59 pm 17:59 Cloudy 66 18.9 61 16.1 84 84 VRB 5 7 29.62 1003 9 14 0.00 0.00
6:59 pm 18:59 Cloudy 65 18.3 61 16.1 87 87 E 6 9 29.64 1004 10 16 0.00 0.03
7:59 pm 19:59 Cloudy 64 17.8 61 16.1 90 90 NE 6 9 29.65 1004 10 16 0.00 0.03
8:59 pm 20:59 Cloudy 65 18.3 62 16.7 90 90 NNW 8 13 29.65 1004 9 14 0.02 0.51
9:48 pm 21:48 Cloudy with Rain 65 18.3 62 16.7 90 90 N 10 17 29.68 1005 3 5 0.03 0.76
9:59 pm 21:59 Cloudy with Rain 64 17.8 61 16.1 90 90 NNW 10 17 29.67 1005 3 5 0.06 1.52
10:43 pm 22:43 Cloudy with Rain 64 17.8 62 16.7 93 93 WNW 9 15 29.68 1005 3 4 0.15 3.81
10:51 pm 22:51 Cloudy with Rain 64 17.8 61 16.1 90 90 W 8 13 29.68 1005 3 5 0.18 4.57
10:59 pm 22:59 Cloudy with Rain 64 17.8 61 16.1 90 90 W 7 11 29.68 1005 3 5 0.21 5.33
11:05 pm 23:05 Cloudy with Rain 64 17.8 61 16.1 90 90 W 9 15 29.68 1005 3 4 0.02 0.51
11:22 pm 23:22 Cloudy with Rain 64 17.8 61 16.1 90 90 W 8 13 29.68 1005 3 5 0.09 2.29
11:59 pm 23:59 Cloudy with Rain 63 17.2 60 15.6 90 90 W 8 13 29.67 1005 3 5 0.23 5.84

Powered by AerisWeather